﻿#,"Date Time, GMT+00:00","Temp, °C (LGR S/N: 10121456, SEN S/N: 10121456)","RH, % (LGR S/N: 10121456, SEN S/N: 10121456)","DewPt, °C (LGR S/N: 10121456, SEN S/N: 10121456)",Coupler Detached (LGR S/N: 10121456),Coupler Attached (LGR S/N: 10121456),Host Connected (LGR S/N: 10121456),End Of File (LGR S/N: 10121456)
1,3/29/2019 12:00,17.082,51.496,7.316,Logged,,,
2,3/29/2019 12:15,18.628,50.807,8.552,,,,
3,3/29/2019 12:30,18.461,48.281,7.661,,,,
4,3/29/2019 12:45,17.796,50.725,7.76,,,,
5,3/29/2019 13:00,17.701,49.777,7.401,,,,
6,3/29/2019 13:15,17.677,49.774,7.378,,,,
7,3/29/2019 13:30,17.701,50.307,7.553,,,,
8,3/29/2019 13:45,17.368,50.325,7.251,,,,
9,3/29/2019 14:00,18.033,50.383,7.882,,,,
10,3/29/2019 14:15,18.105,48.642,7.441,,,,
11,3/29/2019 14:30,17.272,50.281,7.15,,,,
12,3/29/2019 14:45,16.796,46.245,5.517,,,,
13,3/29/2019 15:00,16.463,47.929,5.721,,,,
14,3/29/2019 15:15,16.296,48.874,5.846,,,,
15,3/29/2019 15:30,15.843,52.557,6.458,,,,
16,3/29/2019 15:45,15.485,54.221,6.566,,,,
17,3/29/2019 16:00,15.079,56.258,6.706,,,,
18,3/29/2019 16:15,14.721,58.013,6.802,,,,
19,3/29/2019 16:30,14.385,58.531,6.611,,,,
20,3/29/2019 16:45,13.93,59.564,6.426,,,,
21,3/29/2019 17:00,13.642,60.529,6.378,,,,
22,3/29/2019 17:15,13.353,60.808,6.169,,,,
23,3/29/2019 17:30,13.088,61.769,6.135,,,,
24,3/29/2019 17:45,12.775,60.683,5.593,,,,
25,3/29/2019 18:00,12.195,61.267,5.176,,,,
26,3/29/2019 18:15,11.929,62.398,5.174,,,,
27,3/29/2019 18:30,11.419,64.759,5.197,,,,
28,3/29/2019 18:45,11.029,66.825,5.251,,,,
29,3/29/2019 19:00,10.736,68.746,5.354,,,,
30,3/29/2019 19:15,10.369,70.577,5.355,,,,
31,3/29/2019 19:30,10.026,72.086,5.307,,,,
32,3/29/2019 19:45,9.657,73.827,5.269,,,,
33,3/29/2019 20:00,9.213,75.949,5.214,,,,
34,3/29/2019 20:15,8.866,77.847,5.202,,,,
35,3/29/2019 20:30,8.469,79.552,5.098,,,,
36,3/29/2019 20:45,8.17,81.046,5.047,,,,
37,3/29/2019 21:00,7.945,81.745,4.938,,,,
38,3/29/2019 21:15,7.619,82.655,4.762,,,,
39,3/29/2019 21:30,7.419,83.325,4.668,,,,
40,3/29/2019 21:45,7.268,83.923,4.611,,,,
41,3/29/2019 22:00,6.99,84.647,4.448,,,,
42,3/29/2019 22:15,6.712,85.654,4.325,,,,
43,3/29/2019 22:30,6.611,86.229,4.309,,,,
44,3/29/2019 22:45,6.433,86.602,4.189,,,,
45,3/29/2019 23:00,6.281,87.212,4.127,,,,
46,3/29/2019 23:15,6.128,87.613,4.033,,,,
47,3/29/2019 23:30,5.949,88.187,3.938,,,,
48,3/29/2019 23:45,5.898,88.739,3.966,,,,
49,3/30/2019 0:00,5.821,88.925,3.916,,,,
50,3/30/2019 0:15,5.642,89.186,3.775,,,,
51,3/30/2019 0:30,5.616,89.435,3.784,,,,
52,3/30/2019 0:45,5.565,89.881,3.796,,,,
53,3/30/2019 1:00,5.437,90.102,3.699,,,,
54,3/30/2019 1:15,5.282,90.368,3.582,,,,
55,3/30/2019 1:30,5.334,90.735,3.683,,,,
56,3/30/2019 1:45,5.231,90.861,3.598,,,,
57,3/30/2019 2:00,5.024,91.06,3.42,,,,
58,3/30/2019 2:15,5.179,91.453,3.627,,,,
59,3/30/2019 2:30,4.869,91.524,3.328,,,,
60,3/30/2019 2:45,4.74,91.943,3.256,,,,
61,3/30/2019 3:00,4.558,92.646,3.168,,,,
62,3/30/2019 3:15,4.324,93.183,3.005,,,,
63,3/30/2019 3:30,4.35,93.736,3.103,,,,
64,3/30/2019 3:45,4.246,94.204,3.06,,,,
65,3/30/2019 4:00,4.22,94.765,3.106,,,,
66,3/30/2019 4:15,4.22,95.381,3.184,,,,
67,3/30/2019 4:30,4.246,95.781,3.261,,,,
68,3/30/2019 4:45,4.376,96.062,3.427,,,,
69,3/30/2019 5:00,4.272,96.278,3.35,,,,
70,3/30/2019 5:15,4.194,96.501,3.299,,,,
71,3/30/2019 5:30,4.168,96.689,3.296,,,,
72,3/30/2019 5:45,4.22,96.777,3.36,,,,
73,3/30/2019 6:00,4.324,96.781,3.465,,,,
74,3/30/2019 6:15,4.037,96.897,3.191,,,,
75,3/30/2019 6:30,4.194,96.989,3.36,,,,
76,3/30/2019 6:45,4.298,96.921,3.456,,,,
77,3/30/2019 7:00,4.584,96.976,3.749,,,,
78,3/30/2019 7:15,4.921,96.751,4.059,,,,
79,3/30/2019 7:30,5.128,96.44,4.227,,,,
80,3/30/2019 7:45,5.282,95.867,4.309,,,,
81,3/30/2019 8:00,5.847,94.608,4.711,,,,
82,3/30/2019 8:15,6.255,92.665,4.861,,,,
83,3/30/2019 8:30,6.382,91.283,4.801,,,,
84,3/30/2019 8:45,6.458,90.209,4.728,,,,
85,3/30/2019 9:00,6.914,88.529,4.944,,,,
86,3/30/2019 9:15,7.67,86.823,5.443,,,,
87,3/30/2019 9:30,9.386,80.915,6.218,,,,
88,3/30/2019 9:45,8.045,81.473,4.993,,,,
89,3/30/2019 10:00,8.767,80.319,5.515,,,,
90,3/30/2019 10:15,10.247,76.22,6.267,,,,
91,3/30/2019 10:30,10.198,74.576,5.928,,,,
92,3/30/2019 10:45,11.783,71.755,6.942,,,,
93,3/30/2019 11:00,12.025,71.009,7.034,,,,
94,3/30/2019 11:15,12.413,68.372,6.889,,,,
95,3/30/2019 11:30,12.195,68.274,6.661,,,,
96,3/30/2019 11:45,13.57,66.011,7.513,,,,
97,3/30/2019 12:00,12.243,66.815,6.412,,,,
98,3/30/2019 12:15,13.473,65.411,7.295,,,,
99,3/30/2019 12:30,12.968,66.252,6.988,,,,
100,3/30/2019 12:45,14.792,64.149,8.28,,,,
101,3/30/2019 13:00,13.594,63.355,6.966,,,,
102,3/30/2019 13:15,14.337,63.041,7.604,,,,
103,3/30/2019 13:30,13.69,63.695,7.132,,,,
104,3/30/2019 13:45,13.93,65.054,7.654,,,,
105,3/30/2019 14:00,13.642,65.47,7.468,,,,
106,3/30/2019 14:15,14.505,62.715,7.691,,,,
107,3/30/2019 14:30,13.738,65.079,7.476,,,,
108,3/30/2019 14:45,13.353,65.361,7.169,,,,
109,3/30/2019 15:00,13.425,65.607,7.29,,,,
110,3/30/2019 15:15,13.281,65.348,7.098,,,,
111,3/30/2019 15:30,13.257,66.071,7.227,,,,
112,3/30/2019 15:45,13.546,64.987,7.273,,,,
113,3/30/2019 16:00,13.209,64.957,6.946,,,,
114,3/30/2019 16:15,13.064,65.135,6.846,,,,
115,3/30/2019 16:30,12.654,66.021,6.64,,,,
116,3/30/2019 16:45,12.34,66.284,6.395,,,,
117,3/30/2019 17:00,12.34,66.486,6.436,,,,
118,3/30/2019 17:15,12.292,67.026,6.501,,,,
119,3/30/2019 17:30,12.34,67.467,6.637,,,,
120,3/30/2019 17:45,11.929,68.94,6.538,,,,
121,3/30/2019 18:00,11.175,72.144,6.429,,,,
122,3/30/2019 18:15,11.127,73.425,6.619,,,,
123,3/30/2019 18:30,10.907,74.526,6.607,,,,
124,3/30/2019 18:45,10.369,75.72,6.298,,,,
125,3/30/2019 19:00,9.977,76.769,6.1,,,,
126,3/30/2019 19:15,10.026,77.932,6.347,,,,
127,3/30/2019 19:30,9.435,81.653,6.386,,,,
128,3/30/2019 19:45,9.015,84.066,6.354,,,,
129,3/30/2019 20:00,8.717,85.477,6.277,,,,
130,3/30/2019 20:15,8.668,85.596,6.246,,,,
131,3/30/2019 20:30,8.668,85.991,6.305,,,,
132,3/30/2019 20:45,8.693,86.285,6.374,,,,
133,3/30/2019 21:00,8.618,86.451,6.325,,,,
134,3/30/2019 21:15,8.519,86.506,6.235,,,,
135,3/30/2019 21:30,8.319,87.059,6.12,,,,
136,3/30/2019 21:45,8.045,88.085,5.999,,,,
137,3/30/2019 22:00,7.82,89.399,5.965,,,,
138,3/30/2019 22:15,7.645,90.305,5.919,,,,
139,3/30/2019 22:30,7.368,91.256,5.777,,,,
140,3/30/2019 22:45,7.217,92.158,5.751,,,,
141,3/30/2019 23:00,6.965,92.472,5.543,,,,
142,3/30/2019 23:15,6.839,92.565,5.429,,,,
143,3/30/2019 23:30,6.864,92.091,5.39,,,,
144,3/30/2019 23:45,6.94,91.198,5.343,,,,
145,3/31/2019 0:00,7.015,87.754,4.932,,,,
146,3/31/2019 0:15,7.192,81.227,4.118,,,,
147,3/31/2019 0:30,6.94,84.95,4.444,,,,
148,3/31/2019 0:45,6.788,85.907,4.437,,,,
149,3/31/2019 1:00,6.864,83.407,4.135,,,,
150,3/31/2019 1:15,6.839,79.005,3.414,,,,
151,3/31/2019 1:30,6.839,75.863,2.89,,,,
152,3/31/2019 1:45,6.636,76.962,2.879,,,,
153,3/31/2019 2:00,6.611,77.038,2.867,,,,
154,3/31/2019 2:15,6.56,76.675,2.756,,,,
155,3/31/2019 2:30,6.611,77.58,2.957,,,,
156,3/31/2019 2:45,6.585,78.977,3.162,,,,
157,3/31/2019 3:00,6.56,80.952,3.454,,,,
158,3/31/2019 3:15,6.509,81.897,3.553,,,,
159,3/31/2019 3:30,6.56,81.935,3.609,,,,
160,3/31/2019 3:45,6.661,81.347,3.616,,,,
161,3/31/2019 4:00,6.611,82.08,3.681,,,,
162,3/31/2019 4:15,6.585,82.497,3.721,,,,
163,3/31/2019 4:30,6.484,83.187,3.728,,,,
164,3/31/2019 4:45,6.23,84.939,3.742,,,,
165,3/31/2019 5:00,6.051,86.276,3.764,,,,
166,3/31/2019 5:15,5.898,87.454,3.783,,,,
167,3/31/2019 5:30,5.949,87.776,3.88,,,,
168,3/31/2019 5:45,5.898,87.917,3.849,,,,
169,3/31/2019 6:00,5.796,88.252,3.796,,,,
170,3/31/2019 6:15,5.847,88.521,3.885,,,,
171,3/31/2019 6:30,5.898,88.688,3.959,,,,
172,3/31/2019 6:45,5.949,88.572,3.993,,,,
173,3/31/2019 7:00,6.281,87.78,4.208,,,,
174,3/31/2019 7:15,6.763,85.927,4.415,,,,
175,3/31/2019 7:30,7.268,81.804,4.283,,,,
176,3/31/2019 7:45,7.845,78.848,4.372,,,,
177,3/31/2019 8:00,8.295,73.247,3.845,,,,
178,3/31/2019 8:15,8.469,73.476,4.055,,,,
179,3/31/2019 8:30,8.841,68.561,3.498,,,,
180,3/31/2019 8:45,8.866,69.188,3.642,,,,
181,3/31/2019 9:00,9.114,66.106,3.273,,,,
182,3/31/2019 9:15,8.792,65.962,2.936,,,,
183,3/31/2019 9:30,10.516,63.062,3.977,,,,
184,3/31/2019 9:45,10.075,61.734,3.27,,,,
185,3/31/2019 10:00,11.053,58.451,3.454,,,,
186,3/31/2019 10:15,11.662,53.18,2.733,,,,
187,3/31/2019 10:30,10.296,56.102,2.185,,,,
188,3/31/2019 10:45,10.124,53.891,1.48,,,,
189,3/31/2019 11:00,11.151,50.189,1.467,,,,
190,3/31/2019 11:15,11.078,50.728,1.545,,,,
191,3/31/2019 11:30,10.345,52.99,1.457,,,,
192,3/31/2019 11:45,9.805,56.236,1.756,,,,
193,3/31/2019 12:00,9.756,55.364,1.5,,,,
194,3/31/2019 12:15,9.903,55.177,1.592,,,,
195,3/31/2019 12:30,9.879,53.735,1.211,,,,
196,3/31/2019 12:45,9.854,53.731,1.188,,,,
197,3/31/2019 13:00,9.706,53.289,0.938,,,,
198,3/31/2019 13:15,9.78,52.607,0.833,,,,
199,3/31/2019 13:30,9.854,54.182,1.3,,,,
200,3/31/2019 13:45,9.829,54.268,1.299,,,,
201,3/31/2019 14:00,9.879,54.215,1.332,,,,
202,3/31/2019 14:15,10.1,53.527,1.365,,,,
203,3/31/2019 14:30,10.001,52.397,0.985,,,,
204,3/31/2019 14:45,9.583,52.82,0.704,,,,
205,3/31/2019 15:00,9.756,53.055,0.925,,,,
206,3/31/2019 15:15,9.928,53.05,1.084,,,,
207,3/31/2019 15:30,9.756,52.121,0.685,,,,
208,3/31/2019 15:45,10.247,51.858,1.073,,,,
209,3/31/2019 16:00,9.361,53.929,0.777,,,,
210,3/31/2019 16:15,9.41,55.58,1.229,,,,
211,3/31/2019 16:30,9.188,56.765,1.304,,,,
212,3/31/2019 16:45,8.916,57.315,1.177,,,,
213,3/31/2019 17:00,8.817,56.915,0.99,,,,
214,3/31/2019 17:15,8.742,56.755,0.882,,,,
215,3/31/2019 17:30,8.319,57.546,0.67,,,,
216,3/31/2019 17:45,8.22,58.178,0.721,,,,
217,3/31/2019 18:00,8.17,59.168,0.898,,,,
218,3/31/2019 18:15,7.82,59.754,0.699,,,,
219,3/31/2019 18:30,7.845,61.156,1.03,,,,
220,3/31/2019 18:45,7.368,64.018,1.181,,,,
221,3/31/2019 19:00,7.015,65.727,1.19,,,,
222,3/31/2019 19:15,6.737,66.953,1.166,,,,
223,3/31/2019 19:30,6.535,68.943,1.353,,,,
224,3/31/2019 19:45,6.255,71.315,1.523,,,,
225,3/31/2019 20:00,6.255,70.926,1.453,,,,
226,3/31/2019 20:15,6.051,71.912,1.434,,,,
227,3/31/2019 20:30,5.821,72.942,1.395,,,,
228,3/31/2019 20:45,5.719,73.717,1.432,,,,
229,3/31/2019 21:00,5.488,74.299,1.309,,,,
230,3/31/2019 21:15,5.539,73.927,1.295,,,,
231,3/31/2019 21:30,5.282,75.156,1.256,,,,
232,3/31/2019 21:45,4.869,76.721,1.117,,,,
233,3/31/2019 22:00,4.869,77.77,1.29,,,,
234,3/31/2019 22:15,4.818,78.536,1.363,,,,
235,3/31/2019 22:30,4.869,78.012,1.329,,,,
236,3/31/2019 22:45,5.024,77.481,1.394,,,,
237,3/31/2019 23:00,5.05,77.406,1.407,,,,
238,3/31/2019 23:15,4.973,77.658,1.372,,,,
239,3/31/2019 23:30,5.024,77.831,1.451,,,,
240,3/31/2019 23:45,4.714,79.5,1.416,,,,
241,4/1/2019 0:00,4.454,80.716,1.353,,,,
242,4/1/2019 0:15,4.35,80.851,1.272,,,,
243,4/1/2019 0:30,4.402,80.889,1.329,,,,
244,4/1/2019 0:45,4.298,80.997,1.244,,,,
245,4/1/2019 1:00,4.324,80.792,1.237,,,,
246,4/1/2019 1:15,4.246,80.695,1.146,,,,
247,4/1/2019 1:30,4.194,81.106,1.158,,,,
248,4/1/2019 1:45,4.168,81.311,1.164,,,,
249,4/1/2019 2:00,4.246,81.381,1.252,,,,
250,4/1/2019 2:15,4.246,81.592,1.284,,,,
251,4/1/2019 2:30,4.194,81.527,1.223,,,,
252,4/1/2019 2:45,4.324,81.294,1.315,,,,
253,4/1/2019 3:00,4.324,80.871,1.25,,,,
254,4/1/2019 3:15,4.454,79.947,1.233,,,,
255,4/1/2019 3:30,4.454,79.576,1.174,,,,
256,4/1/2019 3:45,4.532,78.794,1.126,,,,
257,4/1/2019 4:00,4.532,77.992,0.997,,,,
258,4/1/2019 4:15,4.688,77.274,1.032,,,,
259,4/1/2019 4:30,4.636,75.699,0.72,,,,
260,4/1/2019 4:45,4.506,75.509,0.562,,,,
261,4/1/2019 5:00,4.428,75.33,0.456,,,,
262,4/1/2019 5:15,4.35,74.907,0.308,,,,
263,4/1/2019 5:30,4.298,74.652,0.214,,,,
264,4/1/2019 5:45,4.22,75.07,0.209,,,,
265,4/1/2019 6:00,4.428,74.407,0.299,,,,
266,4/1/2019 6:15,4.61,73.654,0.346,,,,
267,4/1/2019 6:30,4.506,73.442,0.209,,,,
268,4/1/2019 6:45,4.61,73.108,0.252,,,,
269,4/1/2019 7:00,4.818,72.794,0.398,,,,
270,4/1/2019 7:15,4.895,73.084,0.523,,,,
271,4/1/2019 7:30,5.231,71.969,0.652,,,,
272,4/1/2019 7:45,5.282,71.511,0.619,,,,
273,4/1/2019 8:00,5.693,70.816,0.89,,,,
274,4/1/2019 8:15,5.847,70.235,0.932,,,,
275,4/1/2019 8:30,6.204,69.579,1.155,,,,
276,4/1/2019 8:45,6.128,69.62,1.089,,,,
277,4/1/2019 9:00,6.889,68.307,1.573,,,,
278,4/1/2019 9:15,7.217,68.594,1.943,,,,
279,4/1/2019 9:30,6.94,70.391,2.014,,,,
280,4/1/2019 9:45,7.015,70.825,2.168,,,,
281,4/1/2019 10:00,7.444,69.34,2.303,,,,
282,4/1/2019 10:15,7.343,69.124,2.165,,,,
283,4/1/2019 10:30,7.469,69.626,2.381,,,,
284,4/1/2019 10:45,7.72,68.492,2.406,,,,
285,4/1/2019 11:00,7.97,67.548,2.464,,,,
286,4/1/2019 11:15,8.469,66.617,2.758,,,,
287,4/1/2019 11:30,8.469,66.303,2.696,,,,
288,4/1/2019 11:45,8.469,66.246,2.684,,,,
289,4/1/2019 12:00,8.767,64.897,2.695,,,,
290,4/1/2019 12:15,9.064,64.172,2.829,,,,
291,4/1/2019 12:30,9.46,62.968,2.952,,,,
292,4/1/2019 12:45,10.001,62.13,3.286,,,,
293,4/1/2019 13:00,9.756,62.816,3.201,,,,
294,4/1/2019 13:15,10.394,62.08,3.648,,,,
295,4/1/2019 13:30,10.149,62.184,3.438,,,,
296,4/1/2019 13:45,10.149,62.242,3.451,,,,
297,4/1/2019 14:00,10.467,61.829,3.663,,,,
298,4/1/2019 14:15,10.638,61.946,3.851,,,,
299,4/1/2019 14:30,11.127,60.56,4.006,,,,
300,4/1/2019 14:45,11.467,59.021,3.977,,,,
301,4/1/2019 15:00,11.321,58.612,3.744,,,,
302,4/1/2019 15:15,11.224,59.455,3.847,,,,
303,4/1/2019 15:30,11.419,57.558,3.588,,,,
304,4/1/2019 15:45,11.565,57.759,3.773,,,,
305,4/1/2019 16:00,11.759,57.819,3.97,,,,
306,4/1/2019 16:15,11.856,57.327,3.944,,,,
307,4/1/2019 16:30,11.783,57.734,3.972,,,,
308,4/1/2019 16:45,11.662,58.012,3.924,,,,
309,4/1/2019 17:00,11.686,58.254,4.004,,,,
310,4/1/2019 17:15,11.662,58.429,4.022,,,,
311,4/1/2019 17:30,11.565,59.036,4.072,,,,
312,4/1/2019 17:45,11.394,60.398,4.223,,,,
313,4/1/2019 18:00,11.297,61.294,4.331,,,,
314,4/1/2019 18:15,11.127,62.233,4.377,,,,
315,4/1/2019 18:30,10.883,63.271,4.37,,,,
316,4/1/2019 18:45,10.687,64.283,4.399,,,,
317,4/1/2019 19:00,10.467,65.343,4.41,,,,
318,4/1/2019 19:15,10.296,66.118,4.406,,,,
319,4/1/2019 19:30,9.829,68.035,4.343,,,,
320,4/1/2019 19:45,9.706,68.979,4.41,,,,
321,4/1/2019 20:00,9.46,70.12,4.392,,,,
322,4/1/2019 20:15,9.238,71.258,4.392,,,,
323,4/1/2019 20:30,8.866,73.362,4.419,,,,
324,4/1/2019 20:45,8.668,74.927,4.505,,,,
325,4/1/2019 21:00,8.543,75.644,4.51,,,,
326,4/1/2019 21:15,8.245,77.005,4.453,,,,
327,4/1/2019 21:30,8.07,77.975,4.446,,,,
328,4/1/2019 21:45,7.87,78.556,4.348,,,,
329,4/1/2019 22:00,7.695,79.22,4.286,,,,
330,4/1/2019 22:15,7.67,79.619,4.327,,,,
331,4/1/2019 22:30,7.343,80.459,4.143,,,,
332,4/1/2019 22:45,7.242,80.998,4.131,,,,
333,4/1/2019 23:00,7.116,81.29,4.053,,,,
334,4/1/2019 23:15,7.217,81.1,4.122,,,,
335,4/1/2019 23:30,7.142,81.136,4.054,,,,
336,4/1/2019 23:45,7.041,81.167,3.96,,,,
337,4/2/2019 0:00,6.914,81.405,3.873,,,,
338,4/2/2019 0:15,6.94,81.836,3.966,,,,
339,4/2/2019 0:30,7.167,80.768,4.02,,,,
340,4/2/2019 0:45,7.167,80.688,4.007,,,,
341,4/2/2019 1:00,6.99,80.968,3.879,,,,
342,4/2/2019 1:15,7.167,80.232,3.934,,,,
343,4/2/2019 1:30,7.066,80.156,3.823,,,,
344,4/2/2019 1:45,7.041,80.445,3.845,,,,
345,4/2/2019 2:00,7.268,79.664,3.941,,,,
346,4/2/2019 2:15,7.116,79.524,3.77,,,,
347,4/2/2019 2:30,7.242,79.444,3.88,,,,
348,4/2/2019 2:45,7.217,79.438,3.855,,,,
349,4/2/2019 3:00,7.318,79.89,4.027,,,,
350,4/2/2019 3:15,7.015,81.747,4.026,,,,
351,4/2/2019 3:30,6.788,81.509,3.766,,,,
352,4/2/2019 3:45,6.357,82.498,3.497,,,,
353,4/2/2019 4:00,5.796,86.421,3.533,,,,
354,4/2/2019 4:15,5.514,88.848,3.601,,,,
355,4/2/2019 4:30,5.334,90.254,3.617,,,,
356,4/2/2019 4:45,5.308,91.184,3.719,,,,
357,4/2/2019 5:00,5.05,91.923,3.562,,,,
358,4/2/2019 5:15,4.921,92.541,3.516,,,,
359,4/2/2019 5:30,4.869,92.753,3.492,,,,
360,4/2/2019 5:45,4.818,92.914,3.462,,,,
361,4/2/2019 6:00,4.844,93.121,3.515,,,,
362,4/2/2019 6:15,4.818,93.263,3.508,,,,
363,4/2/2019 6:30,4.895,93.134,3.569,,,,
364,4/2/2019 6:45,5.024,92.969,3.675,,,,
365,4/2/2019 7:00,5.231,91.769,3.721,,,,
366,4/2/2019 7:15,5.385,90.647,3.722,,,,
367,4/2/2019 7:30,5.539,90.052,3.794,,,,
368,4/2/2019 7:45,5.745,88.649,3.801,,,,
369,4/2/2019 8:00,5.872,88.22,3.867,,,,
370,4/2/2019 8:15,6.153,87.98,4.111,,,,
371,4/2/2019 8:30,6.408,87.889,4.35,,,,
372,4/2/2019 8:45,6.535,87.558,4.428,,,,
373,4/2/2019 9:00,6.382,86.667,4.148,,,,
374,4/2/2019 9:15,6.128,86.942,3.936,,,,
375,4/2/2019 9:30,6.026,88.36,4.039,,,,
376,4/2/2019 9:45,6.179,88.963,4.276,,,,
377,4/2/2019 10:00,6.839,88.356,4.844,,,,
378,4/2/2019 10:15,7.343,84.836,4.824,,,,
379,4/2/2019 10:30,7.645,82.528,4.767,,,,
380,4/2/2019 10:45,7.845,80.625,4.661,,,,
381,4/2/2019 11:00,8.12,78.176,4.529,,,,
382,4/2/2019 11:15,8.27,74.486,4.041,,,,
383,4/2/2019 11:30,8.12,73.765,3.768,,,,
384,4/2/2019 11:45,8.045,70.55,3.109,,,,
385,4/2/2019 12:00,8.693,70.001,3.63,,,,
386,4/2/2019 12:15,9.287,67.28,3.674,,,,
387,4/2/2019 12:30,9.46,65.02,3.382,,,,
388,4/2/2019 12:45,8.568,67.091,2.948,,,,
389,4/2/2019 13:00,7.368,74.494,3.168,,,,
390,4/2/2019 13:15,9.756,64.495,3.555,,,,
391,4/2/2019 13:30,9.46,62.038,2.753,,,,
392,4/2/2019 13:45,9.361,60.153,2.245,,,,
393,4/2/2019 14:00,9.015,64.192,2.786,,,,
394,4/2/2019 14:15,8.965,63.202,2.531,,,,
395,4/2/2019 14:30,8.593,59.91,1.464,,,,
396,4/2/2019 14:45,9.928,59.835,2.709,,,,
397,4/2/2019 15:00,9.706,57.912,2.06,,,,
398,4/2/2019 15:15,9.928,56.344,1.898,,,,
399,4/2/2019 15:30,9.46,56.302,1.449,,,,
400,4/2/2019 15:45,9.361,55.424,1.145,,,,
401,4/2/2019 16:00,8.717,58.198,1.195,,,,
402,4/2/2019 16:15,8.07,63.249,1.689,,,,
403,4/2/2019 16:30,7.745,65.573,1.856,,,,
404,4/2/2019 16:45,7.845,64.131,1.658,,,,
405,4/2/2019 17:00,7.895,60.117,0.85,,,,
406,4/2/2019 17:15,7.745,60.383,0.766,,,,
407,4/2/2019 17:30,7.368,63.099,0.99,,,,
408,4/2/2019 17:45,6.94,67.527,1.472,,,,
409,4/2/2019 18:00,6.458,69.376,1.362,,,,
410,4/2/2019 18:15,6.204,71.028,1.422,,,,
411,4/2/2019 18:30,5.898,71.522,1.216,,,,
412,4/2/2019 18:45,5.719,72.012,1.131,,,,
413,4/2/2019 19:00,5.539,72.362,1.02,,,,
414,4/2/2019 19:15,5.616,72.46,1.112,,,,
415,4/2/2019 19:30,6.026,73.093,1.62,,,,
416,4/2/2019 19:45,5.693,73.191,1.315,,,,
417,4/2/2019 20:00,5.179,74.263,1.003,,,,
418,4/2/2019 20:15,5.024,75.238,1.02,,,,
419,4/2/2019 20:30,5.076,75.167,1.058,,,,
420,4/2/2019 20:45,5.024,75.238,1.02,,,,
421,4/2/2019 21:00,4.921,75.975,1.043,,,,
422,4/2/2019 21:15,4.844,76.229,1.01,,,,
423,4/2/2019 21:30,4.792,76.596,1.021,,,,
424,4/2/2019 21:45,4.818,77.114,1.132,,,,
425,4/2/2019 22:00,4.714,77.495,1.093,,,,
426,4/2/2019 22:15,4.506,78.307,1.022,,,,
427,4/2/2019 22:30,4.454,79.31,1.132,,,,
428,4/2/2019 22:45,4.272,80.489,1.139,,,,
429,4/2/2019 23:00,4.089,81.187,1.068,,,,
430,4/2/2019 23:15,3.958,81.684,1.016,,,,
431,4/2/2019 23:30,3.775,82.585,0.973,,,,
432,4/2/2019 23:45,3.354,84.023,0.772,,,,
433,4/3/2019 0:00,3.195,85.096,0.773,,,,
434,4/3/2019 0:15,3.009,85.463,0.643,,,,
435,4/3/2019 0:30,2.903,86.156,0.637,,,,
436,4/3/2019 0:45,2.744,86.731,0.56,,,,
437,4/3/2019 1:00,2.557,86.838,0.391,,,,
438,4/3/2019 1:15,2.45,87.27,0.346,,,,
439,4/3/2019 1:30,2.37,87.681,0.323,,,,
440,4/3/2019 1:45,2.155,87.907,0.142,,,,
441,4/3/2019 2:00,2.074,88.038,0.08,,,,
442,4/3/2019 2:15,1.94,88.106,-0.044,,,,
443,4/3/2019 2:30,1.805,88.324,-0.148,,,,
444,4/3/2019 2:45,1.778,88.871,-0.1,,,,
445,4/3/2019 3:00,1.588,89.024,-0.267,,,,
446,4/3/2019 3:15,1.67,89.145,-0.171,,,,
447,4/3/2019 3:30,1.453,89.09,-0.393,,,,
448,4/3/2019 3:45,1.289,89.149,-0.547,,,,
449,4/3/2019 4:00,1.453,89.741,-0.306,,,,
450,4/3/2019 4:15,1.507,89.755,-0.25,,,,
451,4/3/2019 4:30,1.48,90.198,-0.218,,,,
452,4/3/2019 4:45,1.615,89.833,-0.132,,,,
453,4/3/2019 5:00,1.398,89.852,-0.345,,,,
454,4/3/2019 5:15,1.48,90.123,-0.228,,,,
455,4/3/2019 5:30,1.507,90.205,-0.19,,,,
456,4/3/2019 5:45,1.425,90.233,-0.267,,,,
457,4/3/2019 6:00,1.453,90.315,-0.23,,,,
458,4/3/2019 6:15,1.778,89.749,0.018,,,,
459,4/3/2019 6:30,1.913,89.107,0.065,,,,
460,4/3/2019 6:45,2.289,88.623,0.373,,,,
461,4/3/2019 7:00,3.063,87.549,0.991,,,,
462,4/3/2019 7:15,3.564,85.829,1.243,,,,
463,4/3/2019 7:30,4.973,83.309,2.26,,,,
464,4/3/2019 7:45,5.975,79.513,2.652,,,,
465,4/3/2019 8:00,6.585,77.629,2.94,,,,
466,4/3/2019 8:15,7.343,76.351,3.464,,,,
467,4/3/2019 8:30,7.268,74.913,3.143,,,,
468,4/3/2019 8:45,6.839,75.453,2.82,,,,
469,4/3/2019 9:00,7.217,71.866,2.553,,,,
470,4/3/2019 9:15,6.102,75.491,2.11,,,,
471,4/3/2019 9:30,6.408,73.968,2.144,,,,
472,4/3/2019 9:45,6.204,74.611,2.058,,,,
473,4/3/2019 10:00,6.763,71.554,2.057,,,,
474,4/3/2019 10:15,6.255,71.925,1.634,,,,
475,4/3/2019 10:30,6,71.32,1.278,,,,
476,4/3/2019 10:45,6.357,70.418,1.457,,,,
477,4/3/2019 11:00,6.153,71.434,1.447,,,,
478,4/3/2019 11:15,6.408,73.17,2.004,,,,
479,4/3/2019 11:30,6.839,72.373,2.279,,,,
480,4/3/2019 11:45,7.795,70.109,2.786,,,,
481,4/3/2019 12:00,7.343,69.068,2.155,,,,
482,4/3/2019 12:15,7.945,68.872,2.696,,,,
483,4/3/2019 12:30,7.619,69.008,2.409,,,,
484,4/3/2019 12:45,7.192,67.969,1.799,,,,
485,4/3/2019 13:00,7.242,68.683,1.985,,,,
486,4/3/2019 13:15,7.419,66.34,1.698,,,,
487,4/3/2019 13:30,7.066,66.985,1.487,,,,
488,4/3/2019 13:45,7.192,69.404,2.073,,,,
489,4/3/2019 14:00,7.368,68.594,2.088,,,,
490,4/3/2019 14:15,8.394,64.974,2.355,,,,
491,4/3/2019 14:30,8.618,62.65,2.084,,,,
492,4/3/2019 14:45,8.344,61.821,1.647,,,,
493,4/3/2019 15:00,7.92,62.79,1.45,,,,
494,4/3/2019 15:15,7.995,62.167,1.389,,,,
495,4/3/2019 15:30,8.145,60.304,1.128,,,,
496,4/3/2019 15:45,8.344,61.007,1.471,,,,
497,4/3/2019 16:00,8.568,61.83,1.861,,,,
498,4/3/2019 16:15,8.519,61.792,1.806,,,,
499,4/3/2019 16:30,8.767,63.63,2.433,,,,
500,4/3/2019 16:45,8.369,60.865,1.463,,,,
501,4/3/2019 17:00,6,76.149,2.123,,,,
502,4/3/2019 17:15,5.949,77.492,2.297,,,,
503,4/3/2019 17:30,6.737,76.141,2.839,,,,
504,4/3/2019 17:45,6.23,77.444,2.563,,,,
505,4/3/2019 18:00,6.509,75.467,2.502,,,,
506,4/3/2019 18:15,6.509,73.851,2.222,,,,
507,4/3/2019 18:30,6.077,78.274,2.55,,,,
508,4/3/2019 18:45,5.591,81.688,2.619,,,,
509,4/3/2019 19:00,5.231,83.919,2.606,,,,
510,4/3/2019 19:15,5.282,85.598,2.905,,,,
511,4/3/2019 19:30,5.308,86.742,3.097,,,,
512,4/3/2019 19:45,5.437,86.799,3.233,,,,
513,4/3/2019 20:00,5.411,85.369,2.999,,,,
514,4/3/2019 20:15,5.488,82.535,2.649,,,,
515,4/3/2019 20:30,5.334,85.22,2.901,,,,
516,4/3/2019 20:45,5.205,85.268,2.781,,,,
517,4/3/2019 21:00,5.076,85.859,2.74,,,,
518,4/3/2019 21:15,4.947,86.86,2.757,,,,
519,4/3/2019 21:30,4.921,87.291,2.793,,,,
520,4/3/2019 21:45,4.869,87.843,2.82,,,,
521,4/3/2019 22:00,4.662,86.327,2.399,,,,
522,4/3/2019 22:15,4.454,87.048,2.297,,,,
523,4/3/2019 22:30,4.246,87.125,2.102,,,,
524,4/3/2019 22:45,4.22,87.298,2.1,,,,
525,4/3/2019 23:00,4.089,88.007,2.071,,,,
526,4/3/2019 23:15,3.985,88.083,1.978,,,,
527,4/3/2019 23:30,3.985,88.796,2.077,,,,
528,4/3/2019 23:45,3.854,89.295,2.016,,,,
529,4/4/2019 0:00,3.775,90.21,2.063,,,,
530,4/4/2019 0:15,3.827,90.299,2.127,,,,
531,4/4/2019 0:30,3.722,90.926,2.107,,,,
532,4/4/2019 0:45,3.643,91.206,2.066,,,,
533,4/4/2019 1:00,3.775,91.241,2.202,,,,
534,4/4/2019 1:15,3.67,91.739,2.163,,,,
535,4/4/2019 1:30,3.591,92.192,2.145,,,,
536,4/4/2019 1:45,3.643,92.455,2.232,,,,
537,4/4/2019 2:00,3.722,92.401,2.303,,,,
538,4/4/2019 2:15,3.617,92.473,2.208,,,,
539,4/4/2019 2:30,3.459,92.805,2.094,,,,
540,4/4/2019 2:45,3.485,93.209,2.173,,,,
541,4/4/2019 3:00,3.512,93.017,2.174,,,,
542,4/4/2019 3:15,3.485,92.961,2.14,,,,
543,4/4/2019 3:30,3.301,93.085,1.972,,,,
544,4/4/2019 3:45,3.433,93.145,2.112,,,,
545,4/4/2019 4:00,3.301,92.961,1.956,,,,
546,4/4/2019 4:15,3.248,93.145,1.927,,,,
547,4/4/2019 4:30,3.116,92.962,1.772,,,,
548,4/4/2019 4:45,3.063,93.195,1.749,,,,
549,4/4/2019 5:00,3.089,93.326,1.792,,,,
550,4/4/2019 5:15,3.221,93.312,1.923,,,,
551,4/4/2019 5:30,3.195,93.107,1.87,,,,
552,4/4/2019 5:45,3.301,93.06,1.969,,,,
553,4/4/2019 6:00,3.354,93.025,2.017,,,,
554,4/4/2019 6:15,3.38,92.585,1.986,,,,